Location: Recife
(8.0585°S, 34.8848°W)
Time: 13:22:56
(UTC-03:00)

Transit 4A - Pass Details

Date: 14 April 2026
Orbit: 861 x 980 km, 66.8° (Epoch: 12 May)

Event Time Altitude Azimuth Distance (km) Brightness Sun altitude
Rises 02:10:32 0° 310° (NW) 3,649 - -47.8°
Reaches altitude 10° 02:13:46 10° 295° (WNW) 2,693 - -47.0°
Maximum altitude 02:18:20 21° 248° (WSW) 1,993 - -45.9°
Drops below altitude 10° 02:22:51 10° 200° (SSW) 2,650 - -44.8°
Sets 02:26:02 0° 184° (S) 3,575 - -44.0°
